Погода в Цивильске

Россия / Чувашская Республика     55°51′54″N   47°28′22″E
темп.,
°C
ветер,
м/с
пор.,
м/с
влажн.,
%
обл.,
%
осадки,
мм/ч
давл.,
гПа
погр.,
м
25 мая, ср
ср2500:00+1сз118771 0.0 100810
03:00−1сз228860 0.0 100911
06:00+3сз35796 0.0 1009258
09:00+7сз5769100 0.1 10091251
12:00+7сз576895 0.2 10101167
15:00+9зсз5761100 0.6 10101448
18:00+8з587194 0.6 1010867
21:00+4з4109262 0.9 1012481
26 мая, чт
чт2600:00+3зюз389499 0.0 1012220
03:00+3зюз4109299 0.0 1013237
06:00+4юз488367 0.0 1012248
09:00+9юз676899 0.0 1012918
12:00+11юз7966100 0.6 10111534
15:00+8зюз51086100 1.5 1011909
18:00+10зюз37805 0.1 1010712
21:00+7ююв3490100 0.1 100857
27 мая, пт
пт2700:00+7ю41195100 0.1 1006301
03:00+9ююв51098100 2.9 1004370
06:00+9ююв71496100 5.3 1000605
09:00+12ю81389100 6.4 9981013
12:00+11ю71292100 0.4 998685
15:00+10ююз61291100 0.7 998864
18:00+10ююз71394100 0.3 998805
21:00+9юз61196100 0.6 1000701
28 мая, сб
сб2800:00+9зюз6129691 0.3 1002600
03:00+9юз5119572 0.3 1004375
06:00+10юз61093100 0.0 1005477
09:00+11ююз51191100 0.4 1005751
12:00+10ю81692100 1.8 10031155
15:00+13ююз8159052 2.0 10031092
18:00+14зюз611812 0.5 10051020
21:00+9ююз410936 0.6 1008194
29 мая, вс
вс2900:00+8ююз513917 0.0 1010248
03:00+8юз51392100 0.0 1011315
06:00+10юз51287100 0.0 1013581
09:00+13юз61175100 0.0 10141306
12:00+15юз81060100 0.1 10151912
15:00+15юз796787 0.5 10161270
18:00+13юз7118099 0.6 1017705
21:00+10юз41192100 0.6 1019275